This is the latest recevied weather packets stored in our database for station/object ZL2ASC-13. If no packets are shown the sender has not sent any weather packets the latest 10 day(s).
| Time | Temp. | Humidity | Pressure | Rain* | Wind** | Luminosity | Snow |
|---|---|---|---|---|---|---|---|
| 1787451689 | 15° C | 57% | 1013 hPa | 0 mm | - | - | - |
| 1787451629 | 14.44° C | 57% | 1013 hPa | 0 mm | - | - | - |
| 1787451569 | 15° C | 57% | 1012.8 hPa | 0 mm | - | - | - |
| 1787451509 | 15° C | 56% | 1012.8 hPa | 0 mm | - | - | - |
| 1787451449 | 15° C | 57% | 1012.8 hPa | 0 mm | - | - | - |
| 1787451389 | 15° C | 58% | 1012.8 hPa | 0 mm | - | - | - |
| 1787451329 | 15° C | 57% | 1012.8 hPa | 0 mm | - | - | - |
| 1787451269 | 15° C | 58% | 1012.7 hPa | 0 mm | - | - | - |
| 1787451209 | 14.44° C | 57% | 1012.6 hPa | 0 mm | - | - | - |
| 1787451149 | 15° C | 54% | 1012.6 hPa | 0 mm | - | - | - |
| 1787451089 | 14.44° C | 56% | 1012.6 hPa | 0 mm | - | - | - |
| 1787451029 | 15° C | 57% | 1012.6 hPa | 0 mm | - | - | - |
| 1787450969 | 15° C | 55% | 1012.6 hPa | 0 mm | - | - | - |
| 1787450909 | 14.44° C | 57% | 1012.6 hPa | 0 mm | - | - | - |
| 1787450849 | 15° C | 56% | 1012.7 hPa | 0 mm | - | - | - |
| 1787450789 | 15° C | 57% | 1012.6 hPa | 0 mm | - | - | - |
| 1787450729 | 15° C | 56% | 1012.5 hPa | 0 mm | - | - | - |
| 1787450669 | 14.44° C | 57% | 1012.6 hPa | 0 mm | - | - | - |
| 1787450609 | 15° C | 57% | 1012.5 hPa | 0 mm | - | - | - |
| 1787450549 | 14.44° C | 57% | 1012.6 hPa | 0 mm | - | - | - |
| 1787450489 | 14.44° C | 57% | 1012.5 hPa | 0 mm | - | - | - |
| 1787450429 | 14.44° C | 57% | 1012.6 hPa | 0 mm | - | - | - |
| 1787450369 | 14.44° C | 55% | 1012.5 hPa | 0 mm | - | - | - |
| 1787450309 | 14.44° C | 58% | 1012.5 hPa | 0 mm | - | - | - |
| 1787450248 | 14.44° C | 58% | 1012.7 hPa | 0 mm | - | - | - |
* Rain latest hour (hover to see other rain measurements)
** Current wind speed in m/s (hover to see current wind gust speed)